Date,TemperatureHighF,TemperatureAvgF,TemperatureLowF,DewpointHighF,DewpointAvgF,DewpointLowF,HumidityHigh,HumidityAvg,HumidityLow,PressureMaxIn,PressureMinIn,WindSpeedMaxMPH,WindSpeedAvgMPH,GustSpeedMaxMPH,PrecipitationSumIn
2013-1-1,34.0,27.3,13.2,28.0,19.2,6.0,82,72,54,29.97,29.75,5,1,0,0.01
2013-1-2,26.8,14.7,3.1,18.0,8.2,-1.0,87,75,64,30.16,29.95,5,0,0,0.00
2013-1-3,23.3,10.5,-1.8,9.0,1.3,-7.0,83,68,40,30.20,30.04,2,0,0,0.00
2013-1-4,35.6,26.5,11.1,25.0,19.5,7.0,87,75,60,30.03,29.85,6,1,0,0.01
2013-1-5,39.3,29.3,17.0,27.0,20.9,13.0,86,72,50,30.30,29.89,4,0,0,0.00
2013-1-6,39.9,28.4,17.6,29.0,23.6,14.0,94,82,64,30.27,29.98,3,0,0,0.00
2013-1-7,37.8,28.0,13.0,28.0,20.9,10.0,90,76,54,30.44,30.01,1,0,0,0.00
2013-1-8,42.7,27.5,11.8,28.0,21.1,9.0,93,78,54,30.41,30.32,7,1,0,0.00
2013-1-9,41.5,31.2,16.6,34.0,25.7,15.0,95,81,58,30.44,30.03,4,0,0,0.01
2013-1-10,42.7,36.0,26.6,30.0,26.2,23.0,86,68,52,30.58,30.07,4,1,0,0.01
2013-1-11,36.4,29.5,20.6,31.0,25.2,19.0,96,85,64,30.58,30.26,2,0,0,0.13
2013-1-12,39.9,34.7,31.8,39.0,33.9,31.0,97,96,95,30.26,30.17,1,0,0,0.03
2013-1-13,46.3,39.6,34.4,45.0,39.1,34.0,98,98,96,30.19,30.02,4,0,0,0.00
2013-1-14,55.7,43.3,34.4,49.0,39.9,30.0,98,88,61,30.30,29.91,3,0,0,0.00
2013-1-15,40.9,32.9,25.0,31.0,26.1,23.0,94,77,56,30.37,30.27,1,0,0,0.00
2013-1-16,33.1,30.3,27.6,31.0,28.5,25.0,96,93,88,30.30,29.86,0,0,0,0.44
2013-1-17,37.4,30.3,24.6,34.0,26.4,15.0,97,86,60,30.14,29.86,3,0,0,0.00
2013-1-18,26.2,18.5,10.9,14.0,5.6,1.0,80,58,42,30.49,30.10,2,0,0,0.00
2013-1-19,43.0,33.4,16.3,29.0,20.4,8.0,78,60,48,30.40,29.90,7,1,0,0.00
2013-1-20,48.9,37.1,25.2,31.0,24.8,13.0,80,62,43,29.97,29.56,7,1,0,0.00
2013-1-21,26.1,21.7,14.3,19.0,10.9,4.0,92,65,47,30.12,29.85,5,0,0,0.00
2013-1-22,24.7,16.3,7.4,18.0,8.0,-2.0,93,71,45,30.13,29.81,3,0,0,0.01
2013-1-23,15.1,8.0,0.6,-1.0,-6.4,-10.0,72,53,36,30.19,30.11,3,0,0,0.00
2013-1-24,18.1,7.5,-3.4,-3.0,-7.1,-11.0,73,53,36,30.30,30.13,3,0,0,0.00
2013-1-25,22.7,13.8,2.1,9.0,-3.8,-9.0,76,47,31,30.36,30.11,2,0,0,0.00
2013-1-26,23.6,14.1,4.2,10.0,2.8,-2.0,89,63,38,30.29,30.06,3,0,0,0.00
2013-1-27,29.5,16.9,7.3,6.0,2.9,-1.0,78,56,35,30.52,30.29,3,0,0,0.00
2013-1-28,27.1,20.4,9.3,22.0,14.1,3.0,93,77,49,30.51,30.08,1,0,0,0.00
2013-1-29,31.7,27.4,19.4,30.0,25.6,18.0,96,92,88,30.24,30.08,1,0,0,0.09
2013-1-30,56.0,40.8,30.8,54.0,39.9,30.0,99,96,94,30.18,29.46,6,1,0,0.11
2013-1-31,58.4,43.5,27.1,57.0,37.4,18.0,98,80,51,29.61,28.96,13,2,0,0.66
2013-2-1,32.8,26.0,19.3,21.0,12.5,6.0,81,58,42,30.12,29.62,6,1,0,0.00
2013-2-2,27.7,21.7,10.9,15.0,7.2,4.0,77,55,42,30.29,30.09,4,0,0,0.00
2013-2-3,27.2,22.9,14.4,21.0,18.4,12.0,93,83,67,30.10,29.78,2,0,0,0.00
2013-2-4,30.3,21.6,15.5,19.0,11.0,6.0,91,65,43,29.98,29.77,3,0,0,0.00
2013-2-5,30.1,23.2,15.7,19.0,11.7,7.0,87,62,46,30.07,29.98,2,0,0,0.00
2013-2-6,36.6,26.8,19.7,26.0,17.5,6.0,92,70,46,30.34,29.97,3,0,0,0.02
2013-2-7,30.7,21.2,8.9,8.0,4.4,-2.0,81,51,33,30.57,30.35,2,0,0,0.00
2013-2-8,23.0,20.3,16.6,19.0,14.2,0.0,92,79,36,30.54,29.76,3,0,0,0.66
2013-2-9,22.8,17.5,9.6,21.0,15.1,7.0,93,90,86,30.26,29.71,2,0,0,0.37
2013-2-10,35.0,18.1,2.8,27.0,12.2,0.0,94,78,61,30.45,30.27,2,0,0,0.05
2013-2-11,31.3,23.2,9.8,30.0,21.1,5.0,96,91,80,30.40,29.66,0,0,0,0.16
2013-2-12,42.2,35.1,29.8,33.0,29.5,25.0,100,81,60,29.91,29.67,4,1,0,0.00
2013-2-13,42.5,31.3,23.0,28.0,23.5,20.0,89,74,52,29.91,29.77,2,0,0,0.00
2013-2-14,42.7,31.4,20.7,27.0,22.6,18.0,92,72,45,30.03,29.74,2,0,0,0.00
2013-2-15,50.2,33.3,19.4,32.0,25.6,18.0,100,76,47,30.03,29.93,7,1,0,0.00
2013-2-16,37.8,32.7,26.5,33.0,28.1,19.0,96,84,67,30.00,29.79,1,0,0,0.10
2013-2-17,26.0,19.9,14.1,18.0,9.2,2.0,88,64,51,29.78,29.47,6,1,0,0.00
2013-2-18,29.1,20.5,11.3,10.0,3.8,1.0,63,49,35,30.19,29.76,4,1,0,0.00
2013-2-19,44.7,31.7,18.5,36.0,21.5,3.0,96,68,43,30.22,29.62,4,1,0,0.20
2013-2-20,34.7,29.4,23.6,34.0,20.9,14.0,97,72,50,29.82,29.58,4,1,0,0.00
2013-2-21,32.1,25.3,21.0,18.0,14.9,11.0,81,65,50,30.25,29.81,3,1,0,0.00
2013-2-22,39.7,29.2,17.1,24.0,19.7,15.0,91,70,45,30.44,30.27,3,0,0,0.00
2013-2-23,35.6,31.3,25.6,31.0,27.3,22.0,96,85,75,30.38,29.98,3,0,0,0.00
2013-2-24,33.4,32.4,31.3,32.0,31.4,30.0,97,96,95,29.97,29.77,0,0,0,1.09
2013-2-25,37.4,31.9,24.2,36.0,30.8,23.0,98,95,90,30.28,29.95,0,0,0,0.06
2013-2-26,41.3,33.2,24.5,37.0,29.6,24.0,98,87,68,30.38,30.22,2,0,0,0.00
2013-2-27,38.8,33.6,31.1,38.0,32.8,29.0,98,96,92,30.21,29.64,10,0,0,1.33
2013-2-28,41.7,34.2,28.9,38.0,33.0,28.0,98,95,86,29.68,29.58,3,0,0,0.18
2013-3-1,38.9,33.4,26.9,35.0,29.9,26.0,98,87,74,29.73,29.58,2,0,0,0.00
2013-3-2,39.2,33.6,26.5,31.0,28.3,24.0,92,81,70,29.73,29.67,1,0,0,0.00
2013-3-3,38.8,33.3,29.6,31.0,28.0,25.0,89,81,73,29.70,29.61,2,0,0,0.01
2013-3-4,39.4,32.1,26.7,28.0,24.7,21.0,84,75,56,29.81,29.64,3,1,0,0.00
2013-3-5,46.6,34.5,27.0,31.0,26.9,23.0,90,75,52,30.12,29.81,2,0,0,0.00
2013-3-6,36.0,33.0,30.3,34.0,31.7,29.0,97,95,90,30.18,30.10,5,0,0,0.11
2013-3-7,32.8,30.5,28.8,31.0,29.3,27.0,97,95,92,30.16,30.07,3,0,0,0.45
2013-3-8,34.4,31.0,28.5,33.0,29.9,27.0,97,96,93,30.22,30.02,1,0,0,0.57
2013-3-9,53.0,34.3,20.1,34.0,24.6,18.0,98,73,27,30.41,30.21,2,0,0,0.00
2013-3-10,46.5,33.1,17.3,33.0,26.1,16.0,97,77,53,30.46,30.34,4,0,0,0.00
2013-3-11,49.8,39.4,27.0,39.0,32.4,26.0,96,78,55,30.36,30.17,4,1,0,0.00
2013-3-12,51.9,43.6,35.9,50.0,42.4,35.0,97,95,87,30.18,29.75,6,0,0,0.39
2013-3-13,48.4,38.7,28.4,41.0,30.1,21.0,98,74,44,29.82,29.75,2,0,0,0.00
2013-3-14,34.7,28.6,20.4,25.0,16.9,9.0,81,62,48,29.89,29.76,3,1,0,0.00
2013-3-15,39.1,28.5,15.9,28.0,15.8,7.0,86,61,33,29.91,29.68,7,1,0,0.00
2013-3-16,36.9,30.8,24.0,27.0,16.9,12.0,83,58,38,29.93,29.73,3,0,0,0.00
2013-3-17,36.8,26.1,16.4,17.0,13.1,9.0,87,60,37,30.37,29.93,6,0,0,0.00
2013-3-18,37.3,25.6,10.6,26.0,8.8,3.0,91,53,26,30.51,30.29,4,0,0,0.00
2013-3-19,32.9,29.9,24.3,32.0,28.8,23.0,96,95,92,30.27,29.71,5,0,0,0.94
2013-3-20,34.4,26.8,19.3,27.0,23.0,17.0,96,86,70,29.86,29.75,3,0,0,0.06
2013-3-21,38.4,25.9,12.3,25.0,18.5,10.0,95,76,44,29.86,29.65,1,0,0,0.00
2013-3-22,38.2,30.0,21.9,26.0,21.2,18.0,90,71,49,29.79,29.67,3,0,0,0.00
2013-3-23,41.1,31.7,20.9,25.0,21.3,17.0,87,67,44,29.84,29.69,5,1,0,0.00
2013-3-24,46.0,35.3,27.1,28.0,24.5,21.0,84,66,48,29.86,29.77,3,0,0,0.00
2013-3-25,44.0,34.0,24.7,31.0,26.6,21.0,86,75,57,29.82,29.57,4,0,0,0.00
2013-3-26,47.9,37.1,30.5,31.0,26.8,22.0,86,68,42,29.83,29.60,4,0,0,0.00
2013-3-27,52.7,39.1,26.9,31.0,26.6,21.0,86,63,40,29.93,29.80,4,0,0,0.00
2013-3-28,49.4,39.2,32.7,35.0,32.2,30.0,96,78,48,30.07,29.93,1,0,0,0.01
2013-3-29,57.6,42.0,31.4,36.0,31.5,29.0,91,69,39,30.10,30.02,2,0,0,0.00
2013-3-30,55.7,40.8,27.1,32.0,26.4,18.0,90,62,28,30.14,30.05,3,0,0,0.00
2013-3-31,58.4,40.7,21.5,39.0,26.5,18.0,94,63,27,30.16,29.79,11,1,0,0.09
2013-4-1,60.1,43.2,31.1,45.0,35.4,16.0,98,76,47,29.83,29.54,13,1,0,0.44
2013-4-2,39.8,32.0,25.9,19.0,15.1,11.0,65,51,35,29.98,29.84,10,1,0,0.00
2013-4-3,46.3,34.5,26.2,17.0,15.3,13.0,61,47,28,30.20,29.97,5,1,0,0.00
2013-4-4,54.1,40.0,24.5,24.0,18.5,15.0,74,45,24,30.34,30.07,5,1,0,0.00
2013-4-5,61.7,45.3,35.8,29.0,26.0,22.0,70,50,23,30.07,29.69,6,1,0,0.00
2013-4-6,46.4,35.3,24.7,26.0,13.3,8.0,70,43,24,30.38,29.93,10,1,0,0.00
2013-4-7,55.9,39.9,20.6,39.0,24.3,11.0,81,56,30,30.37,30.02,7,2,0,0.00
2013-4-8,65.6,49.9,37.5,42.0,38.0,33.0,95,67,33,30.12,29.99,4,0,0,0.00
2013-4-9,69.5,52.5,42.7,52.0,43.5,37.0,96,74,45,30.10,29.91,3,0,0,0.02
2013-4-10,61.2,51.0,44.7,52.0,47.4,43.0,97,88,69,30.05,29.89,4,0,0,0.57
2013-4-11,52.2,45.2,37.6,48.0,38.5,28.0,97,79,49,30.19,29.88,3,0,0,0.08
2013-4-12,37.9,34.7,33.1,36.0,33.5,32.0,97,95,88,30.21,29.87,2,0,0,0.68
2013-4-13,52.1,42.1,33.3,43.0,37.0,33.0,98,83,57,29.98,29.83,3,0,0,0.14
2013-4-14,53.4,42.4,29.3,39.0,32.9,26.0,94,71,46,30.26,29.96,4,0,0,0.00
2013-4-15,57.3,41.6,25.4,37.0,31.3,24.0,97,71,41,30.43,30.27,5,0,0,0.00
2013-4-16,67.9,49.3,29.6,52.0,41.2,28.0,96,76,45,30.43,30.09,10,2,0,0.02
2013-4-17,68.0,55.8,39.5,53.0,38.2,30.0,85,55,28,30.37,30.09,4,0,0,0.00
2013-4-18,64.0,48.7,29.3,45.0,33.0,27.0,93,59,34,30.48,30.17,9,1,0,0.00
2013-4-19,74.1,62.7,51.9,62.0,56.7,45.0,96,81,60,30.18,29.65,13,2,0,0.00
2013-4-20,66.9,50.4,39.5,63.0,41.0,24.0,96,73,45,30.26,29.63,5,0,0,0.48
2013-4-21,54.6,40.5,27.1,28.0,23.3,20.0,81,53,29,30.72,30.28,3,0,0,0.00
2013-4-22,54.4,39.4,24.9,33.0,27.2,22.0,93,66,33,30.80,30.65,10,1,0,0.00
2013-4-23,39.7,37.3,31.7,39.0,35.0,29.0,96,91,80,30.65,30.20,2,0,0,0.01
2013-4-24,75.7,57.2,39.5,53.0,44.3,38.0,97,68,27,30.17,29.80,11,1,0,0.00
2013-4-25,64.3,52.6,36.4,51.0,36.9,26.0,93,59,28,30.31,29.83,12,1,0,0.07
2013-4-26,63.2,46.2,27.8,37.0,31.8,25.0,92,61,32,30.47,30.32,5,0,0,0.00
2013-4-27,66.5,49.5,29.6,43.0,35.3,28.0,97,63,34,30.47,30.31,6,0,0,0.00
2013-4-28,70.8,52.9,32.3,43.0,36.4,31.0,96,59,30,30.38,30.22,16,1,0,0.00
2013-4-29,70.3,55.8,39.9,48.0,37.4,26.0,84,53,33,30.29,30.20,7,1,0,0.00
2013-4-30,70.8,56.5,41.1,38.0,31.2,25.0,77,42,22,30.39,30.28,5,1,0,0.00
2013-5-1,72.9,52.9,30.9,40.0,33.6,28.0,90,54,25,30.51,30.39,4,0,0,0.00
2013-5-2,80.5,55.4,39.1,50.0,39.8,34.0,95,62,25,30.53,30.35,5,0,0,0.00
2013-5-3,64.7,49.6,34.4,46.0,40.3,33.0,96,73,48,30.58,30.43,6,0,0,0.00
2013-5-4,67.2,49.8,34.4,48.0,37.1,23.0,98,68,24,30.42,30.32,5,0,0,0.00
2013-5-5,65.8,47.6,28.0,42.0,35.8,27.0,97,68,39,30.38,30.27,8,1,0,0.00
2013-5-6,73.9,52.1,29.1,48.0,38.4,28.0,97,67,25,30.32,30.16,5,1,0,0.00
2013-5-7,79.8,61.3,38.4,57.0,47.9,37.0,98,67,31,30.20,30.10,5,0,0,0.00
2013-5-8,71.8,60.6,48.0,64.0,56.7,47.0,98,88,68,30.23,30.08,4,0,0,0.10
2013-5-9,66.3,59.7,56.6,62.0,58.3,56.0,98,95,77,30.07,29.91,2,0,0,0.26
2013-5-10,79.0,63.6,46.3,65.0,55.0,46.0,99,77,42,29.99,29.91,4,0,0,0.01
2013-5-11,67.1,62.2,57.8,63.0,59.3,55.0,97,90,83,29.92,29.72,5,1,0,0.17
2013-5-12,69.2,57.8,42.3,59.0,50.3,33.0,98,78,50,29.84,29.60,10,0,0,0.01
2013-5-13,58.5,46.6,35.4,37.0,32.4,29.0,87,60,37,30.08,29.84,7,0,0,0.00
2013-5-14,59.0,47.3,34.8,38.0,33.4,30.0,88,62,36,30.10,30.02,3,0,0,0.00
2013-5-15,64.5,46.7,28.6,52.0,38.6,27.0,97,77,34,30.09,29.71,8,1,0,0.07
2013-5-16,80.7,64.3,45.7,51.0,44.3,36.0,94,55,25,29.84,29.67,7,1,0,0.00
2013-5-17,70.0,56.3,42.3,47.0,41.5,37.0,92,61,34,30.25,29.85,3,0,0,0.00
2013-5-18,74.3,55.8,35.1,51.0,41.6,34.0,98,65,31,30.34,30.25,5,0,0,0.00
2013-5-19,70.3,54.9,42.2,56.0,49.6,41.0,97,84,53,30.38,30.24,6,0,0,0.06
2013-5-20,82.1,66.9,54.8,67.0,60.6,54.0,98,82,56,30.23,29.95,3,0,0,0.04
2013-5-21,82.3,62.4,49.8,72.0,58.6,48.0,98,88,68,30.06,29.89,3,0,0,0.16
2013-5-22,69.5,56.9,49.4,64.0,54.9,48.0,98,93,80,30.13,29.91,3,0,0,1.05
2013-5-23,75.5,62.1,52.9,70.0,60.9,52.0,99,96,82,29.97,29.81,7,0,0,1.18
2013-5-24,70.2,61.1,46.9,66.0,59.3,46.0,98,94,82,29.86,29.66,2,0,0,1.17
2013-5-25,49.4,45.3,38.6,49.0,44.7,38.0,100,97,95,29.86,29.77,2,0,0,0.58
2013-5-26,58.2,46.7,37.9,46.0,41.3,37.0,98,83,59,30.15,29.77,4,0,0,0.02
2013-5-27,72.3,55.1,35.8,47.0,41.9,35.0,97,66,31,30.22,30.11,4,0,0,0.00
2013-5-28,74.2,56.0,36.4,51.0,44.0,35.0,98,70,35,30.28,30.18,4,0,0,0.00
2013-5-29,68.7,60.4,51.4,65.0,58.8,50.0,98,94,86,30.21,30.01,2,0,0,0.61
2013-5-30,87.5,72.7,59.5,72.0,66.0,59.0,99,82,50,30.11,30.03,4,0,0,0.01
2013-5-31,92.9,77.5,60.1,75.0,65.9,59.0,99,72,42,30.11,29.95,5,0,0,0.00
2013-6-1,91.7,80.4,65.6,70.0,66.2,62.0,92,64,39,29.98,29.86,6,1,0,0.00
2013-6-2,90.0,78.6,67.7,72.0,67.6,62.0,95,71,41,29.88,29.71,7,2,0,0.03
2013-6-3,79.4,67.3,50.8,69.0,62.2,47.0,97,85,61,29.87,29.78,3,0,0,0.27
2013-6-4,72.0,58.6,46.3,52.0,46.9,41.0,91,67,44,30.14,29.87,3,0,0,0.00
2013-6-5,75.7,59.9,42.9,55.0,48.8,42.0,98,71,36,30.23,30.12,3,0,0,0.00
2013-6-6,72.1,61.3,48.6,56.0,51.4,47.0,96,72,47,30.22,30.12,4,0,0,0.04
2013-6-7,55.4,53.6,50.6,55.0,52.9,50.0,98,97,94,30.14,29.89,1,0,0,1.77
2013-6-8,77.9,61.6,50.8,68.0,58.2,50.0,99,89,67,30.04,29.69,2,0,0,1.12
2013-6-9,79.9,65.2,51.7,61.0,57.0,51.0,98,77,49,30.20,30.04,4,0,0,0.00
2013-6-10,69.2,60.4,51.2,62.0,56.9,50.0,98,89,66,30.23,30.05,5,0,0,0.88
2013-6-11,59.9,56.8,54.3,59.0,56.0,54.0,98,97,94,30.04,29.62,3,0,0,0.97
2013-6-12,69.8,60.0,53.8,61.0,56.3,52.0,99,88,67,29.86,29.60,5,0,0,0.11
2013-6-13,64.3,54.6,47.0,60.0,53.1,46.0,99,94,79,29.85,29.73,5,0,0,0.70
2013-6-14,73.5,58.9,50.4,63.0,55.5,50.0,99,89,62,29.82,29.70,2,0,0,0.60
2013-6-15,78.4,63.6,49.6,58.0,52.0,47.0,96,70,37,29.96,29.82,3,0,0,0.01
2013-6-16,75.3,64.4,51.0,62.0,55.5,48.0,94,74,50,29.97,29.73,4,0,0,0.00
2013-6-17,83.0,67.2,58.1,67.0,61.1,56.0,97,83,51,29.93,29.81,3,0,0,0.54
2013-6-18,69.1,59.8,53.3,65.0,58.6,53.0,99,95,80,29.98,29.91,1,0,0,0.48
2013-6-19,73.9,61.2,49.5,61.0,54.2,48.0,99,80,44,30.18,29.95,2,0,0,0.01
2013-6-20,78.6,61.5,43.0,59.0,51.1,42.0,99,73,39,30.30,30.19,5,0,0,0.00
2013-6-21,84.9,69.0,55.1,65.0,58.3,53.0,94,72,36,30.27,30.21,2,0,0,0.00
2013-6-22,84.5,71.5,58.4,68.0,61.9,57.0,96,74,50,30.24,30.12,9,1,0,0.00
2013-6-23,90.2,77.7,65.4,74.0,66.9,59.0,82,70,56,30.17,29.99,4,1,0,0.00
2013-6-24,93.5,79.8,68.2,78.0,71.2,67.0,96,77,52,30.02,29.89,3,0,0,0.22
2013-6-25,87.7,76.5,68.7,73.0,70.8,68.0,96,84,58,29.78,29.74,1,0,0,0.08
2013-6-26,82.7,72.1,65.0,74.0,69.5,64.0,99,91,73,29.87,29.74,2,0,0,0.15
2013-6-27,69.0,65.8,62.8,68.0,65.1,62.0,98,97,94,29.89,29.77,3,0,0,0.04
2013-6-28,77.1,65.1,57.6,74.0,64.2,57.0,100,97,88,29.78,29.50,4,0,0,0.65
2013-6-29,82.4,73.7,66.7,73.0,69.0,66.0,99,86,63,29.73,29.52,6,1,0,0.21
2013-6-30,85.0,75.1,63.9,74.0,69.4,63.0,98,83,60,29.95,29.73,4,0,0,0.07
2013-7-1,78.0,72.7,69.3,74.0,71.3,68.0,98,95,85,30.09,29.95,3,0,0,0.69
2013-7-2,83.1,72.4,61.5,77.0,70.1,61.0,99,93,75,30.23,30.08,4,0,0,0.01
2013-7-3,87.5,75.1,61.1,76.0,69.9,60.0,98,85,66,30.23,30.15,9,1,0,0.00
2013-7-4,91.7,81.7,72.8,77.0,73.7,71.0,95,78,56,30.22,30.10,6,1,0,0.00
2013-7-5,92.3,82.9,74.1,79.0,74.3,72.0,93,76,58,30.17,30.04,4,1,0,0.00
2013-7-6,90.2,78.7,67.6,77.0,71.9,63.0,97,81,56,30.10,30.00,2,0,0,0.00
2013-7-7,90.1,76.2,63.9,79.0,70.4,63.0,97,83,62,30.04,29.92,2,0,0,0.00
2013-7-8,89.7,76.1,67.8,77.0,71.9,66.0,98,87,62,30.09,29.93,4,0,0,0.00
2013-7-9,72.7,68.6,64.4,69.0,66.4,63.0,96,92,86,30.14,30.07,3,0,0,0.00
2013-7-10,81.6,72.1,65.7,78.0,70.3,65.0,98,94,82,30.10,29.81,2,0,0,0.10
2013-7-11,84.6,73.8,66.6,76.0,71.5,66.0,99,93,69,29.96,29.79,2,0,0,0.19
2013-7-12,79.1,69.6,62.0,68.0,62.6,59.0,97,80,51,30.24,29.97,5,0,0,0.00
2013-7-13,76.8,69.4,62.6,72.0,65.9,60.0,96,89,79,30.34,30.23,1,0,0,0.00
2013-7-14,91.8,77.7,66.0,78.0,72.1,65.0,99,84,55,30.33,30.22,1,0,0,0.00
2013-7-15,92.2,78.2,66.9,78.0,72.2,66.0,99,84,53,30.23,30.12,2,0,0,0.00
2013-7-16,94.6,78.8,64.8,77.0,70.4,64.0,99,78,46,30.19,30.13,2,0,0,0.00
2013-7-17,94.4,80.3,65.4,77.0,71.1,65.0,99,76,48,30.20,30.00,5,0,0,0.00
2013-7-18,94.7,81.5,71.9,79.0,73.9,71.0,96,80,47,30.02,29.95,2,0,0,0.07
2013-7-19,94.8,83.0,69.9,79.0,74.0,69.0,99,77,52,29.96,29.72,6,1,0,0.00
2013-7-20,90.7,80.2,67.1,78.0,71.4,63.0,91,75,54,29.83,29.68,3,0,0,0.00
2013-7-21,83.0,72.2,61.0,70.0,65.5,60.0,97,81,57,30.02,29.84,3,0,0,0.00
2013-7-22,83.0,70.2,60.9,72.0,66.3,60.0,98,88,68,30.05,29.91,2,0,0,0.00
2013-7-23,79.9,70.1,66.8,77.0,69.1,66.0,99,96,89,29.91,29.56,1,0,0,1.52
2013-7-24,82.9,72.9,61.5,75.0,67.7,54.0,99,85,59,30.00,29.61,2,0,0,0.00
2013-7-25,64.3,60.0,55.0,60.0,55.2,50.0,97,84,73,30.14,30.01,2,0,0,0.03
2013-7-26,71.2,63.8,59.5,70.0,62.9,59.0,99,96,89,30.11,29.98,1,0,0,0.61
2013-7-27,83.0,69.7,55.3,69.0,62.5,55.0,99,81,50,30.09,30.01,4,0,0,0.00
2013-7-28,83.0,69.8,58.2,73.0,65.5,57.0,99,87,64,30.05,29.98,4,0,0,0.02
2013-7-29,83.6,71.6,63.5,72.0,67.9,62.0,98,89,57,30.07,29.97,3,0,0,0.00
2013-7-30,82.7,68.9,55.6,64.0,60.1,54.0,98,76,47,30.13,30.05,2,0,0,0.00
2013-7-31,81.4,67.6,54.7,67.0,60.3,54.0,99,80,48,30.17,30.06,2,0,0,0.00
2013-8-1,78.7,64.8,53.8,69.0,61.5,53.0,99,89,66,30.07,29.90,4,0,0,0.11
2013-8-2,82.0,70.0,63.3,71.0,64.5,61.0,99,84,53,29.90,29.82,5,0,0,0.85
2013-8-3,79.3,68.2,57.7,66.0,61.1,56.0,93,79,58,29.89,29.80,4,0,0,0.00
2013-8-4,80.3,65.2,52.8,65.0,57.4,52.0,97,78,52,29.93,29.80,3,0,0,0.00
2013-8-5,76.1,61.1,50.3,54.0,50.5,47.0,96,72,37,30.09,29.93,2,0,0,0.00
2013-8-6,77.9,61.5,44.5,62.0,52.8,44.0,98,76,45,30.18,30.09,3,0,0,0.00
2013-8-7,78.7,64.9,49.6,65.0,55.8,49.0,98,76,43,30.22,30.12,5,1,0,0.00
2013-8-8,80.6,71.1,63.3,72.0,66.9,59.0,96,86,72,30.14,30.02,4,0,0,0.03
2013-8-9,75.3,71.8,69.3,75.0,70.4,69.0,98,95,89,30.04,29.77,5,0,0,1.73
2013-8-10,81.9,69.9,58.3,69.0,63.7,54.0,99,82,58,30.05,29.81,7,0,0,0.01
2013-8-11,79.3,63.7,49.2,63.0,56.0,48.0,99,79,43,30.12,30.03,1,0,0,0.00
2013-8-12,82.0,66.9,53.5,66.0,59.2,52.0,98,79,48,30.06,29.95,4,0,0,0.00
2013-8-13,72.2,65.7,59.9,70.0,63.9,59.0,97,94,83,29.95,29.71,2,0,0,0.10
2013-8-14,73.6,63.5,53.7,63.0,56.4,51.0,98,79,56,30.00,29.70,2,0,0,0.00
2013-8-15,77.0,61.5,48.5,59.0,53.5,48.0,98,78,47,30.14,30.00,4,0,0,0.00
2013-8-16,79.0,62.5,48.2,63.0,54.8,47.0,98,79,47,30.23,30.14,4,0,0,0.00
2013-8-17,80.4,64.4,48.1,67.0,57.7,47.0,99,81,49,30.32,30.23,3,0,0,0.00
2013-8-18,79.4,65.8,53.0,68.0,61.0,52.0,100,86,59,30.31,30.11,3,0,0,0.00
2013-8-19,82.9,69.0,57.2,67.0,62.2,56.0,99,80,54,30.11,29.98,2,0,0,0.00
2013-8-20,85.8,70.8,58.6,71.0,63.1,58.0,97,79,48,30.12,30.02,3,0,0,0.00
2013-8-21,88.0,71.3,57.6,71.0,63.9,57.0,99,80,46,30.17,30.05,5,0,0,0.00
2013-8-22,87.0,74.5,60.9,72.0,67.1,60.0,97,79,57,30.06,29.84,5,0,0,0.00
2013-8-23,81.7,69.5,54.2,68.0,60.1,51.0,95,75,44,30.17,29.85,3,0,0,0.00
2013-8-24,77.5,61.5,47.5,58.0,51.8,46.0,98,74,37,30.37,30.17,5,0,0,0.00
2013-8-25,82.1,64.3,46.5,64.0,53.8,46.0,98,73,36,30.41,30.21,5,0,0,0.00
2013-8-26,79.8,70.2,60.7,70.0,63.9,56.0,96,81,67,30.21,29.89,4,0,0,0.07
2013-8-27,87.0,74.1,65.8,72.0,67.9,64.0,98,82,52,29.93,29.85,3,0,0,0.01
2013-8-28,87.1,71.2,60.4,73.0,65.8,60.0,99,84,53,30.01,29.87,2,0,0,0.00
2013-8-29,67.1,63.6,59.9,65.0,62.6,59.0,98,96,92,30.11,29.97,2,0,0,0.21
2013-8-30,84.7,70.0,55.8,71.0,64.6,55.0,99,84,60,30.06,29.84,4,0,0,0.00
2013-8-31,80.5,73.5,68.5,76.0,71.0,67.0,98,91,81,29.85,29.79,2,0,0,0.23
2013-9-1,81.8,75.0,69.2,75.0,71.4,67.0,97,88,74,29.90,29.81,4,0,0,0.00
2013-9-2,78.3,73.8,70.8,75.0,72.1,70.0,98,94,84,29.88,29.72,3,0,0,0.08
2013-9-3,81.1,69.7,60.9,71.0,65.6,57.0,99,87,66,29.84,29.72,3,0,0,0.00
2013-9-4,81.7,66.4,56.1,63.0,57.8,55.0,97,76,47,29.95,29.83,3,0,0,0.00
2013-9-5,72.2,59.8,44.9,60.0,52.5,43.0,96,79,45,30.20,29.88,2,0,0,0.01
2013-9-6,70.6,53.5,38.1,51.0,43.6,37.0,98,74,37,30.29,30.12,3,0,0,0.00
2013-9-7,79.8,61.6,44.5,60.0,52.4,43.0,98,75,43,30.12,29.88,4,0,0,0.00
2013-9-8,76.0,62.3,45.2,64.0,52.2,41.0,94,71,42,30.13,29.78,3,0,0,0.00
2013-9-9,68.7,53.2,36.6,52.0,44.1,35.0,98,75,44,30.28,30.13,5,0,0,0.00
2013-9-10,75.6,64.5,51.8,70.0,62.0,49.0,97,91,82,30.18,30.05,7,1,0,0.11
2013-9-11,93.4,78.5,65.7,78.0,71.5,65.0,99,81,55,30.09,29.95,6,0,0,0.03
2013-9-12,84.8,72.1,65.8,77.0,69.7,65.0,98,92,72,29.96,29.68,4,0,0,0.96
2013-9-13,75.7,66.1,55.5,71.0,63.8,54.0,99,92,79,29.80,29.60,3,0,0,0.06
2013-9-14,66.8,57.1,47.9,57.0,52.8,47.0,98,86,65,30.09,29.80,1,0,0,0.01
2013-9-15,71.0,56.0,42.0,56.0,48.8,41.0,98,80,45,30.20,30.08,4,0,0,0.00
2013-9-16,65.8,55.5,43.3,59.0,51.1,38.0,96,85,71,30.30,30.04,2,0,0,0.02
2013-9-17,63.4,47.2,33.1,48.0,40.1,32.0,100,79,48,30.48,30.30,3,0,0,0.00
2013-9-18,74.6,52.2,35.0,55.0,44.1,34.0,98,79,36,30.38,30.18,2,0,0,0.00
2013-9-19,79.6,59.6,42.0,61.0,51.4,41.0,98,78,41,30.17,30.06,2,0,0,0.00
2013-9-20,79.7,60.1,43.9,62.0,52.6,43.0,98,80,41,30.12,30.02,2,0,0,0.00
2013-9-21,73.6,60.4,44.0,64.0,55.5,43.0,98,85,65,30.06,29.74,10,1,0,0.00
2013-9-22,69.1,61.2,47.7,66.0,56.5,46.0,98,85,59,29.88,29.62,3,0,0,0.76
2013-9-23,63.7,49.4,39.7,49.0,43.1,39.0,96,81,54,30.06,29.88,2,0,0,0.00
2013-9-24,67.2,50.6,38.8,48.0,43.5,37.0,97,79,45,30.04,29.86,2,0,0,0.00
2013-9-25,70.3,54.2,40.7,57.0,48.4,40.0,98,82,56,30.03,29.91,2,0,0,0.00
2013-9-26,67.6,56.5,49.4,53.0,50.3,48.0,95,81,54,30.17,30.03,1,0,0,0.00
2013-9-27,65.6,56.4,46.9,56.0,52.3,46.0,96,87,68,30.30,30.17,1,0,0,0.00
2013-9-28,75.2,56.0,41.1,60.0,50.2,40.0,99,83,51,30.38,30.30,3,0,0,0.00
2013-9-29,69.3,51.3,37.8,56.0,45.3,37.0,98,83,45,30.31,30.16,3,0,0,0.00
2013-9-30,71.6,50.9,33.8,56.0,45.1,33.0,98,83,49,30.17,30.01,2,0,0,0.00
2013-10-1,77.9,56.9,39.1,61.0,50.6,38.0,98,82,47,30.01,29.88,2,0,0,0.00
2013-10-2,80.1,63.8,50.7,64.0,57.3,50.0,98,82,55,29.99,29.87,5,0,0,0.00
2013-10-3,77.2,60.1,46.5,61.0,52.4,45.0,98,79,36,30.12,29.99,3,0,0,0.00
2013-10-4,60.1,54.1,46.9,59.0,53.0,46.0,98,95,92,30.13,30.07,0,0,0,0.40
2013-10-5,66.7,59.7,55.1,61.0,57.7,55.0,98,93,77,30.16,30.10,1,0,0,0.01
2013-10-6,59.0,53.7,50.7,58.0,53.2,50.0,100,98,97,30.27,30.15,1,0,0,0.50
2013-10-7,74.5,60.3,52.5,71.0,59.1,52.0,99,95,81,30.17,29.81,10,1,0,0.51
2013-10-8,65.1,51.7,38.5,54.0,47.0,38.0,99,86,52,30.42,29.93,2,0,0,0.01
2013-10-9,62.1,46.3,32.9,50.0,41.4,32.0,98,85,57,30.53,30.42,3,0,0,0.00
2013-10-10,59.0,46.7,34.4,52.0,44.0,33.0,98,91,69,30.42,30.24,0,0,0,0.00
2013-10-11,71.0,53.5,40.5,55.0,46.1,37.0,98,80,31,30.23,30.14,3,0,0,0.00
2013-10-12,54.9,49.8,42.1,54.0,49.0,41.0,98,97,94,30.45,30.20,0,0,0,0.02
2013-10-13,57.9,48.4,37.0,53.0,45.8,36.0,99,91,76,30.50,30.43,2,0,0,0.00
2013-10-14,65.4,47.2,30.8,50.0,41.5,30.0,98,83,51,30.45,30.28,3,0,0,0.00
2013-10-15,66.5,55.1,48.4,57.0,51.6,47.0,97,88,69,30.31,30.22,3,0,0,0.00
2013-10-16,59.4,52.8,45.8,53.0,50.1,45.0,98,91,71,30.22,29.95,0,0,0,0.00
2013-10-17,73.7,56.0,44.3,61.0,50.5,43.0,99,84,48,29.95,29.75,3,0,0,0.00
2013-10-18,66.7,56.7,41.9,60.0,50.1,39.0,98,80,51,29.94,29.63,4,0,0,0.04
2013-10-19,66.3,50.7,33.0,49.0,41.4,32.0,98,74,44,30.01,29.77,6,0,0,0.00
2013-10-20,60.8,50.3,37.4,49.0,40.7,34.0,96,72,45,30.05,29.72,3,0,0,0.00
2013-10-21,66.0,47.7,32.2,46.0,38.9,31.0,97,75,43,30.15,30.02,3,0,0,0.00
2013-10-22,61.9,48.8,36.7,52.0,43.0,35.0,98,82,62,30.01,29.74,4,0,0,0.00
2013-10-23,50.4,41.0,29.2,42.0,34.4,28.0,97,79,54,29.84,29.63,3,0,0,0.00
2013-10-24,52.7,42.8,33.1,37.0,31.1,26.0,90,65,43,29.93,29.69,3,0,0,0.00
2013-10-25,49.2,38.1,26.0,37.0,29.4,23.0,96,73,47,30.19,29.93,2,0,0,0.00
2013-10-26,52.6,40.5,24.8,36.0,28.6,23.0,94,67,39,30.20,29.91,10,1,0,0.00
2013-10-27,54.8,45.8,33.4,38.0,33.4,28.0,81,63,46,30.10,29.84,4,0,0,0.00
2013-10-28,58.1,41.9,28.9,37.0,31.6,24.0,89,69,44,30.40,30.11,7,0,0,0.00
2013-10-29,49.0,32.3,21.7,30.0,21.5,18.0,95,69,34,30.50,30.40,1,0,0,0.00
2013-10-30,52.0,36.2,24.6,40.0,30.3,18.0,94,80,63,30.42,30.25,2,0,0,0.00
2013-10-31,59.0,42.1,27.7,58.0,41.0,27.0,98,95,89,30.29,29.82,2,0,0,0.18
2013-11-1,67.1,61.6,49.6,62.0,57.2,48.0,97,85,73,29.81,29.46,9,2,0,0.08
2013-11-2,65.2,50.3,36.3,54.0,43.8,35.0,98,81,47,29.77,29.63,2,0,0,0.01
2013-11-3,47.2,38.3,24.9,44.0,28.4,19.0,96,69,39,30.48,29.77,2,0,0,0.01
2013-11-4,42.4,28.7,19.5,24.0,17.3,15.0,85,65,36,30.76,30.48,4,0,0,0.00
2013-11-5,50.0,33.4,19.1,32.0,25.7,16.0,96,75,49,30.77,30.55,3,0,0,0.00
2013-11-6,59.7,47.3,32.4,47.0,39.7,30.0,94,76,55,30.55,30.07,6,1,0,0.00
2013-11-7,62.3,51.4,33.3,57.0,47.3,30.0,93,86,78,30.06,29.71,9,1,0,0.04
2013-11-8,48.1,35.3,25.2,36.0,27.1,22.0,92,73,51,30.13,29.86,3,0,0,0.01
2013-11-9,44.8,35.4,26.6,30.0,25.4,21.0,81,68,45,30.26,30.07,1,0,0,0.00
2013-11-10,53.1,42.3,34.4,45.0,35.2,30.0,97,77,61,30.06,29.78,4,0,0,0.04
2013-11-11,51.1,43.1,33.8,32.0,29.0,24.0,76,59,37,30.14,29.90,5,0,0,0.00
2013-11-12,46.2,33.3,24.5,38.0,24.3,16.0,92,70,57,30.23,29.91,5,0,0,0.03
2013-11-13,35.6,26.6,18.2,19.0,15.2,11.0,86,64,42,30.35,30.19,4,0,0,0.00
2013-11-14,50.3,37.7,27.2,27.0,22.1,18.0,71,55,38,30.18,30.08,4,0,0,0.00
2013-11-15,60.0,41.9,28.8,27.0,21.9,18.0,75,49,21,30.23,30.13,5,0,0,0.00
2013-11-16,61.5,41.6,28.6,37.0,30.6,26.0,89,68,33,30.36,30.21,1,0,0,0.00
2013-11-17,45.8,37.8,27.2,43.0,35.6,25.0,97,91,83,30.36,29.91,0,0,0,0.03
2013-11-18,63.0,51.7,42.9,59.0,44.6,33.0,99,79,50,29.89,29.56,7,0,0,0.25
2013-11-19,44.1,36.5,27.5,33.0,23.7,17.0,72,61,47,30.34,29.71,3,0,0,0.00
2013-11-20,40.3,28.8,17.4,19.0,15.8,12.0,80,60,37,30.68,30.34,2,0,0,0.00
2013-11-21,46.7,30.5,13.6,32.0,20.2,11.0,90,69,31,30.70,30.41,4,0,0,0.00
2013-11-22,42.7,40.9,38.0,42.0,38.6,32.0,97,92,73,30.40,29.85,1,0,0,0.15
2013-11-23,44.3,36.3,27.0,43.0,27.3,13.0,98,72,47,29.98,29.83,6,0,0,0.00
2013-11-24,26.5,22.0,17.1,17.0,5.5,-1.0,72,50,34,30.24,29.84,4,1,0,0.00
2013-11-25,32.0,23.4,12.3,14.0,5.1,-2.0,58,46,27,30.43,30.25,9,0,0,0.00
2013-11-26,36.3,31.8,27.1,31.0,22.9,14.0,95,71,50,30.37,30.11,5,0,0,0.19
2013-11-27,49.5,40.1,31.9,49.0,39.5,31.0,98,97,95,30.09,29.28,2,0,0,2.50
2013-11-28,33.4,27.5,19.4,32.0,18.1,8.0,96,69,44,30.48,29.50,4,0,0,0.00
2013-11-29,33.3,22.5,11.4,20.0,12.1,6.0,89,66,42,30.80,30.48,2,0,0,0.00
2013-11-30,30.8,19.8,5.6,20.0,11.9,3.0,92,73,47,30.86,30.49,2,0,0,0.00
2013-12-1,33.4,30.2,25.4,33.0,27.8,20.0,97,91,78,30.48,30.07,0,0,0,0.10
2013-12-2,38.0,35.2,33.2,37.0,34.6,33.0,98,97,97,30.07,29.96,0,0,0,0.01
2013-12-3,46.7,34.7,26.6,43.0,32.9,26.0,98,93,75,30.00,29.90,0,0,0,0.00
2013-12-4,41.7,30.5,23.9,34.0,27.3,23.0,98,88,66,30.25,30.00,0,0,0,0.01
2013-12-5,38.2,33.6,25.1,38.0,32.6,24.0,98,96,92,30.26,29.96,1,0,0,0.03
2013-12-6,53.2,43.6,31.9,53.0,42.2,31.0,99,95,84,30.20,29.90,1,0,0,0.21
2013-12-7,38.2,29.9,20.2,37.0,28.4,19.0,98,94,88,30.50,30.13,1,0,0,0.23
2013-12-8,28.8,23.5,16.0,23.0,19.7,14.0,95,86,70,30.64,30.50,0,0,0,0.00
2013-12-9,32.3,28.3,23.1,32.0,26.9,20.0,97,94,81,30.56,29.93,1,0,0,0.00
2013-12-10,32.6,28.3,18.9,31.0,26.5,15.0,97,92,82,30.04,29.84,2,0,0,0.23
2013-12-11,30.1,22.8,16.2,22.0,17.4,14.0,94,80,63,30.24,30.04,4,0,0,0.01
2013-12-12,23.5,15.4,6.3,18.0,8.5,3.0,91,75,49,30.32,30.10,2,0,0,0.00
2013-12-13,26.7,17.6,10.4,18.0,11.5,5.0,89,77,68,30.45,30.04,4,0,0,0.00
2013-12-14,14.4,10.6,6.2,12.0,3.0,-3.0,90,72,49,30.67,30.25,0,0,0,0.43
2013-12-15,27.7,19.9,14.4,26.0,18.1,12.0,95,92,89,30.24,29.52,0,0,0,0.74
2013-12-16,25.2,18.1,6.5,19.0,12.1,2.0,94,78,58,30.25,29.78,4,0,0,0.00
2013-12-17,16.7,5.2,-9.7,14.0,2.0,-13.0,92,86,76,30.33,30.05,0,0,0,0.36
2013-12-18,31.6,22.5,15.9,26.0,19.4,13.0,95,88,75,30.12,29.96,2,0,0,0.06
2013-12-19,38.9,29.4,22.5,26.0,22.9,19.0,91,77,56,30.16,30.00,4,0,0,0.00
2013-12-20,50.6,33.5,25.6,35.0,28.6,23.0,99,83,51,30.16,29.95,2,0,0,0.00
2013-12-21,54.7,38.7,29.3,44.0,35.4,28.0,96,89,65,29.99,29.88,3,0,0,0.00
2013-12-22,37.2,34.3,31.9,37.0,33.6,31.0,98,97,95,30.07,29.85,1,0,0,0.04
2013-12-23,34.0,32.2,31.2,34.0,31.7,31.0,98,98,97,30.14,30.02,1,0,0,0.53
2013-12-24,33.3,29.1,22.5,32.0,23.1,15.0,98,79,60,30.25,30.10,2,0,0,0.00
2013-12-25,23.2,16.6,10.8,17.0,6.2,2.0,82,65,48,30.59,30.26,2,0,0,0.00
2013-12-26,26.5,19.6,12.0,24.0,16.1,8.0,94,86,77,30.55,30.14,0,0,0,0.00
2013-12-27,31.2,22.4,13.1,24.0,18.3,11.0,94,84,66,30.32,30.25,4,0,0,0.05
2013-12-28,43.5,29.8,17.0,29.0,24.0,15.0,99,80,56,30.26,30.04,4,0,0,0.02
2013-12-29,37.5,30.6,24.3,33.0,28.8,23.0,97,93,78,30.07,29.52,1,0,0,1.03
2013-12-30,37.5,29.4,14.3,35.0,24.0,8.0,98,81,62,30.21,29.59,3,0,0,0.10
2013-12-31,24.0,15.2,5.8,13.0,7.9,2.0,88,74,49,30.23,30.06,6,0,0,0.00
2014-1-1,24.6,15.9,6.8,12.0,8.1,4.0,88,72,53,30.44,30.23,4,0,0,0.00
2014-1-2,15.3,9.5,0.7,13.0,6.4,-3.0,90,87,84,30.42,29.94,0,0,0,0.31